Total_Precipitation_Accumulation
1.13 1.14 1.10 1.13 1.02 0.95 1.00 1.06 1.08 1.10 0.99 0.85 0.80 0.80 0.86 0.80 0.79 0.94 1.24 1.64 2.14 2.57 2.74 2.68 2.44 2.30 2.33 2.33 2.47 2.63 2.83 2.95 2.73 2.54 2.30 2.15 2.34 2.46 2.16 2.06 2.05 2.07 2.22
1.16 1.23 1.18 1.13 1.06 0.96 0.99 1.17 1.13 1.15 1.12 1.05 0.88 0.85 0.85 0.81 0.78 0.85 1.02 1.34 1.64 1.99 2.44 2.79 2.62 2.36 2.19 2.15 2.16 2.32 2.62 2.69 2.45 2.36 2.28 2.20 2.43 2.55 2.26 2.09 2.00 1.90 2.10
1.07 1.14 1.15 1.09 1.06 1.06 1.07 1.13 1.16 1.21 1.11 1.02 0.98 0.90 0.86 0.82 0.73 0.82 0.83 0.96 1.04 1.31 1.73 2.17 2.49 2.47 2.36 2.32 2.26 2.34 2.58 2.53 2.28 2.29 2.39 2.36 2.33 2.40 2.32 2.13 1.97 1.87 1.98
1.14 1.14 1.17 1.16 1.17 1.21 1.20 1.23 1.29 1.27 1.19 1.17 1.13 1.09 0.91 0.90 0.80 0.82 0.81 0.83 0.90 0.88 1.07 1.35 1.71 2.04 2.31 2.47 2.63 2.80 2.69 2.45 2.25 2.22 2.34 2.20 2.09 2.19 2.25 2.16 1.90 1.75 1.68
1.21 1.33 1.36 1.37 1.34 1.35 1.35 1.30 1.33 1.23 1.21 1.22 1.15 1.16 1.05 1.00 0.93 0.80 0.87 0.89 0.89 0.84 0.88 0.83 0.95 1.16 1.53 2.03 2.65 2.95 2.59 2.38 2.24 2.06 2.03 1.98 1.99 2.08 2.09 1.90 1.72 1.57 1.52
1.44 1.64 1.72 1.61 1.57 1.58 1.57 1.52 1.57 1.44 1.31 1.34 1.23 1.20 1.11 0.98 1.01 0.97 0.93 0.93 0.98 0.94 0.87 0.76 0.72 0.66 0.84 1.31 2.05 2.52 2.48 2.37 2.19 2.07 1.94 1.89 1.94 2.03 2.01 1.86 1.73 1.71 1.66
1.78 1.92 1.84 1.91 1.92 1.80 1.81 1.87 1.91 1.87 1.66 1.52 1.58 1.47 1.19 0.94 1.00 0.97 0.92 0.95 1.02 1.12 1.13 1.00 0.85 0.76 0.73 0.87 1.34 1.92 2.30 2.33 2.32 2.15 2.04 2.01 1.96 1.98 1.98 1.94 1.92 1.89 1.87
2.01 2.05 2.12 2.20 2.22 2.21 2.16 2.05 2.18 2.33 2.05 1.79 1.89 2.19 1.81 1.39 1.01 0.80 0.87 0.91 1.01 1.25 1.32 1.13 0.93 0.86 0.85 0.94 0.90 1.20 1.63 2.04 2.25 2.26 2.18 2.12 2.09 2.12 2.15 2.02 1.90 1.89 1.90
2.22 2.26 2.31 2.36 2.37 2.21 2.20 2.30 2.45 2.80 2.60 2.21 1.99 2.26 2.12 1.80 1.46 1.01 0.90 0.94 1.03 1.20 1.33 1.34 1.22 1.15 1.06 1.08 1.04 0.87 1.05 1.49 1.90 2.23 2.35 2.33 2.21 2.40 2.61 2.37 2.01 1.84 1.72
2.17 2.28 2.29 2.27 2.24 2.18 2.23 2.29 2.35 2.77 2.99 2.69 2.32 1.92 1.72 1.69 1.77 1.48 1.08 1.00 1.08 1.09 1.21 1.29 1.24 1.30 1.29 1.28 1.27 1.01 0.94 1.17 1.52 2.02 2.42 2.74 2.57 2.40 2.44 2.51 2.31 1.97 1.70
2.03 2.05 2.06 2.15 2.17 2.22 2.27 2.42 2.54 2.82 2.85 2.84 2.64 2.42 2.20 1.88 1.54 1.62 1.55 1.27 1.19 1.09 1.18 1.31 1.36 1.43 1.46 1.48 1.60 1.33 1.04 0.95 1.15 1.60 2.18 2.72 2.87 2.63 2.42 2.38 2.33 2.17 1.88
2.02 1.94 1.88 1.96 2.09 2.23 2.28 2.38 2.53 2.77 2.88 2.95 2.86 2.58 2.49 2.33 2.04 1.91 1.65 1.49 1.48 1.25 1.21 1.25 1.29 1.42 1.57 1.65 1.60 1.71 1.38 0.99 0.89 1.17 1.55 2.08 2.72 2.94 2.77 2.67 2.56 2.46 2.28
1.75 1.80 1.86 1.93 2.05 2.13 2.20 2.33 2.47 2.52 2.63 2.87 2.88 2.69 2.47 2.29 2.27 2.14 2.01 1.69 1.51 1.31 1.29 1.29 1.24 1.30 1.32 1.59 1.72 1.79 1.47 1.14 0.87 0.88 1.06 1.32 1.83 2.43 2.74 2.76 2.76 2.88 2.83
1.64 1.60 1.64 1.72 1.93 2.10 2.17 2.26 2.27 2.25 2.30 2.49 2.49 2.56 2.52 2.24 2.20 2.09 2.07 2.14 1.87 1.65 1.47 1.27 1.14 1.19 1.24 1.44 1.74 1.82 1.39 1.23 0.99 0.86 0.89 1.10 1.26 1.47 1.83 2.35 2.69 2.91 3.10
1.42 1.38 1.42 1.45 1.57 1.78 2.01 2.15 2.11 2.02 1.99 2.15 2.21 2.29 2.42 2.46 2.36 2.25 2.21 2.27 2.23 1.98 1.77 1.51 1.26 1.12 1.20 1.33 1.73 1.65 1.44 1.30 1.19 1.00 0.91 0.98 1.02 1.14 1.24 1.53 1.86 2.06 2.28
1.22 1.19 1.20 1.27 1.42 1.54 1.73 1.94 2.03 1.96 1.94 2.01 2.11 2.24 2.37 2.49 2.53 2.32 2.27 2.25 2.11 2.04 1.88 1.52 1.26 1.17 1.25 1.24 1.59 1.59 1.54 1.54 1.33 1.16 1.08 1.05 1.09 1.08 1.07 1.19 1.29 1.33 1.32
1.03 1.03 1.19 1.25 1.32 1.41 1.61 1.87 2.04 2.04 1.96 1.97 1.93 2.00 2.18 2.29 2.50 2.48 2.38 2.26 2.12 1.96 1.84 1.63 1.39 1.23 1.29 1.35 1.45 1.53 1.53 1.43 1.25 1.23 1.10 1.06 1.06 1.09 1.07 1.10 1.22 1.16 1.07
0.77 0.88 1.01 1.04 1.10 1.16 1.36 1.64 1.84 1.88 1.84 1.75 1.72 1.83 2.04 2.21 2.43 2.55 2.51 2.35 2.24 2.09 1.98 1.92 1.72 1.50 1.37 1.42 1.55 1.64 1.59 1.52 1.44 1.45 1.31 1.18 1.12 1.09 1.10 1.07 1.12 1.19 1.15
0.79 0.89 0.97 1.03 1.06 1.11 1.16 1.28 1.45 1.57 1.56 1.49 1.51 1.57 1.60 1.79 2.07 2.27 2.29 2.32 2.35 2.32 2.27 2.11 1.90 1.77 1.61 1.49 1.60 1.64 1.61 1.65 1.52 1.54 1.52 1.42 1.38 1.33 1.23 1.14 1.11 1.13 1.17
0.75 0.84 0.89 0.96 1.04 1.09 1.09 1.11 1.15 1.21 1.22 1.29 1.35 1.37 1.40 1.45 1.67 1.85 1.94 2.13 2.38 2.41 2.43 2.34 2.07 1.90 1.77 1.62 1.69 1.81 1.87 1.83 1.68 1.49 1.49 1.43 1.49 1.46 1.34 1.17 1.10 1.07 1.12
0.66 0.75 0.80 0.81 0.85 0.95 1.06 1.09 0.98 0.95 1.04 1.15 1.16 1.10 1.12 1.21 1.35 1.46 1.51 1.86 2.23 2.43 2.44 2.36 2.17 2.05 1.81 1.68 1.54 1.57 1.77 2.01 1.99 1.89 1.79 1.54 1.49 1.39 1.33 1.31 1.21 1.11 1.11
0.65 0.70 0.68 0.70 0.78 0.81 0.99 0.99 0.83 0.82 0.89 0.99 1.07 1.03 0.91 0.90 0.94 1.05 1.12 1.28 1.56 1.82 2.12 2.32 2.21 1.98 1.75 1.65 1.62 1.63 1.68 1.82 1.99 1.88 1.92 1.91 1.82 1.76 1.65 1.53 1.55 1.44 1.33
0.62 0.63 0.63 0.62 0.65 0.78 0.84 0.70 0.71 0.74 0.81 0.88 0.95 1.00 0.90 0.78 0.86 0.91 1.01 1.08 1.07 1.15 1.45 1.83 1.96 1.86 1.92 1.81 1.77 1.70 1.67 1.75 1.82 1.80 1.96 2.01 1.96 1.94 1.87 1.87 1.96 1.81 1.62
0.66 0.66 0.68 0.66 0.65 0.72 0.72 0.59 0.64 0.66 0.70 0.77 0.88 0.98 1.02 0.93 0.92 1.03 1.03 1.05 0.98 0.92 1.15 1.17 1.35 1.66 1.82 1.91 1.88 1.95 2.10 2.05 1.91 1.80 1.80 1.84 1.74 1.75 1.78 1.80 1.95 1.88 1.74
0.62 0.67 0.72 0.72 0.65 0.64 0.68 0.59 0.60 0.63 0.67 0.72 0.75 0.84 0.92 0.89 1.06 1.17 1.13 1.25 1.22 1.07 1.20 1.27 1.34 1.41 1.54 1.69 1.79 1.84 1.90 1.96 1.94 1.86 1.68 1.55 1.50 1.51 1.56 1.59 1.62 1.72 1.70
0.41 0.51 0.54 0.56 0.60 0.59 0.77 0.67 0.66 0.65 0.70 0.80 0.83 0.82 0.98 1.00 1.11 1.11 1.05 1.26 1.28 1.15 1.06 1.11 1.12 1.13 1.08 1.19 1.42 1.56 1.77 1.87 1.83 1.75 1.51 1.37 1.36 1.40 1.41 1.27 1.17 1.20 1.23